Weather in Novoyugino

Russia / Tomsk District     58°59′28″N   80°34′07″E
temp.,
°C
wind,
m/s
gust,
m/s
humid.,
%
clouds,
%
prec.,
mm/h
press.,
hPa
HPBL,
m
11 april, sun
sun1101:00−1sw2694100 0.0 1041112
04:000sw399498 0.0 1040197
07:000sw31092100 0.0 1040264
10:00+1wsw3895100 0.0 1039294
13:00+1wsw2797100 0.5 1039290
16:00+1sw2799100 0.8 1038247
19:00+3ssw2799100 1.1 1036193
22:00+3ssw31196100 0.0 1033320
12 april, mon
mon1201:00+3sw41492100 0.0 1030501
04:00+2sw51483100 0.0 1027503
07:00+2wsw51487100 0.4 1026513
10:00+2wsw51393100 1.7 1024544
13:00+2wsw41196100 2.4 1024494
16:00+3w41098100 0.0 1025739
19:00+4wnw3109299 0.1 1026421
22:00+1nw310875 0.1 1028487
13 april, tue
tue1301:00−2w279714 0.1 1028135
04:00−1w310937 0.0 1029285
07:00−1wsw311947 0.0 1029327
10:00+2w4108763 0.0 1029663
13:00+4wnw597646 0.1 10291261
16:00+5wnw51072100 0.4 10281299
19:00+4w4107575 0.5 1028844
22:00+3w4138099 0.1 1028620
14 april, wed
wed1401:00+2w41287100 0.1 1027497
04:00+1w4109586 0.0 1027370
07:00+1wsw2696100 0.0 1027196
10:00+2sw3798100 0.7 1025529
13:00+4sw4989100 2.7 1022565
16:00+7w4977100 0.0 1020863
19:00+4w3994100 0.3 1020776
22:00+3wnw3798100 0.1 1020463
15 april, thu
thu1501:00+2nw2699100 0.1 1021286
04:00+1w2499100 0.0 1021189
07:00+1wsw1399100 0.0 1021101
10:00+3sw2595100 0.0 1020288
13:00+7sw4676100 0.0 1017925
16:00+9sw5871100 0.0 1015825
19:00+9sw5127863 0.0 1012618
22:00+8sw4129173 0.1 1011275